Wetterdaten: aktuell Donnerstag, 29.09.2022 10:36
Datum Zeit Temperatur Bodentemp. Luftfeuchte Luftdruck Regen Sonnenschein
29.09.2022 10:36 9,3 C 8,8 C 100 % 1002 hPa 0,0 l/m 0 min
29.09.2022 10:31 9,1 C 8,7 C 100 % 1002 hPa 0,0 l/m 0 min
29.09.2022 10:26 9,1 C 8,6 C 100 % 1002 hPa 0,0 l/m 0 min
29.09.2022 10:21 8,8 C 8,5 C 100 % 1002 hPa 0,0 l/m 0 min
29.09.2022 10:16 8,6 C 8,5 C 100 % 1002 hPa 0,0 l/m 0 min
29.09.2022 10:11 8,4 C 8,5 C 100 % 1002 hPa 0,0 l/m 0 min
29.09.2022 10:06 8,4 C 8,2 C 100 % 1002 hPa 0,0 l/m 0 min
29.09.2022 10:01 8,4 C 8,2 C 100 % 1002 hPa 0,0 l/m 0 min
29.09.2022 09:56 8,3 C 8,2 C 100 % 1002 hPa 0,0 l/m 0 min
29.09.2022 09:52 8,4 C 8,1 C 100 % 1002 hPa 0,0 l/m 0 min
29.09.2022 09:46 8,4 C 8,0 C 100 % 1002 hPa 0,0 l/m 0 min
29.09.2022 09:41 8,4 C 8,0 C 100 % 1002 hPa 0,0 l/m 0 min
29.09.2022 09:36 8,2 C 8,0 C 100 % 1002 hPa 0,0 l/m 0 min
29.09.2022 09:31 7,7 C 7,7 C 100 % 1002 hPa 0,0 l/m 0 min
29.09.2022 09:26 7,7 C 7,7 C 100 % 1002 hPa 0,0 l/m 0 min
29.09.2022 09:21 7,7 C 7,6 C 100 % 1002 hPa 0,0 l/m 0 min
29.09.2022 09:16 7,5 C 7,6 C 100 % 1002 hPa 0,0 l/m 0 min
29.09.2022 09:11 7,2 C 7,5 C 100 % 1002 hPa 0,0 l/m 0 min
29.09.2022 09:06 7,2 C 7,4 C 100 % 1001 hPa 0,0 l/m 0 min
29.09.2022 09:01 7,2 C 7,4 C 100 % 1001 hPa 0,0 l/m 0 min
29.09.2022 08:57 6,8 C 7,1 C 100 % 1001 hPa 0,0 l/m 0 min
29.09.2022 08:51 6,1 C 7,1 C 100 % 1001 hPa 0,0 l/m 0 min
29.09.2022 08:46 6,1 C 6,7 C 100 % 1002 hPa 0,0 l/m 0 min
29.09.2022 08:41 6,1 C 6,5 C 100 % 1002 hPa 0,0 l/m 0 min
29.09.2022 08:37 5,9 C 6,5 C 100 % 1002 hPa 0,0 l/m 0 min
29.09.2022 08:31 5,9 C 6,4 C 100 % 1001 hPa 0,0 l/m 0 min
29.09.2022 08:26 5,7 C 6,3 C 100 % 1001 hPa 0,0 l/m 0 min
29.09.2022 08:21 5,4 C 6,1 C 100 % 1001 hPa 0,0 l/m 0 min
29.09.2022 08:16 5,3 C 6,1 C 100 % 1001 hPa 0,0 l/m 0 min
29.09.2022 08:11 5,3 C 5,8 C 100 % 1001 hPa 0,0 l/m 0 min
29.09.2022 08:06 5,2 C 5,8 C 100 % 1001 hPa 0,0 l/m 0 min
29.09.2022 08:02 5,0 C 5,8 C 100 % 1001 hPa 0,0 l/m 0 min
29.09.2022 07:56 5,0 C 5,7 C 100 % 1001 hPa 0,0 l/m 0 min
29.09.2022 07:51 4,9 C 5,7 C 100 % 1001 hPa 0,0 l/m 0 min
29.09.2022 07:46 4,7 C 5,5 C 100 % 1001 hPa 0,0 l/m 0 min
29.09.2022 07:42 4,7 C 5,4 C 100 % 1001 hPa 0,0 l/m 0 min
29.09.2022 07:36 4,6 C 5,3 C 100 % 1001 hPa 0,0 l/m 0 min
29.09.2022 07:31 4,6 C 5,3 C 100 % 1001 hPa 0,0 l/m 0 min
29.09.2022 07:26 4,3 C 5,0 C 100 % 1001 hPa 0,0 l/m 0 min
29.09.2022 07:21 4,3 C 5,0 C 100 % 1001 hPa 0,0 l/m 0 min
29.09.2022 07:16 4,1 C 4,8 C 100 % 1001 hPa 0,0 l/m 0 min
29.09.2022 07:11 4,0 C 4,8 C 100 % 1001 hPa 0,0 l/m 0 min
29.09.2022 07:06 3,6 C 4,7 C 100 % 1001 hPa 0,0 l/m 0 min
29.09.2022 07:01 3,6 C 4,6 C 100 % 1001 hPa 0,0 l/m 0 min
29.09.2022 06:56 3,3 C 4,6 C 100 % 1001 hPa 0,0 l/m 0 min
29.09.2022 06:51 2,8 C 4,5 C 100 % 1001 hPa 0,0 l/m 0 min
29.09.2022 06:47 2,8 C 4,4 C 100 % 1001 hPa 0,0 l/m 0 min
29.09.2022 06:41 2,8 C 4,3 C 100 % 1001 hPa 0,0 l/m 0 min
29.09.2022 06:36 2,9 C 4,3 C 100 % 1001 hPa 0,0 l/m 0 min
_ Min-Zeit 04:41 06:11 12:41 11:01 - -
Minimum _ 2,8 C 4,3 C 81 % 996 hPa - -
_ Max-Zeit 13:36 15:22 11:01 08:37 16:06 11:01
Maximum _ 10,3 C 10,4 C 100 % 1002 hPa 1,8 l/m 0 min
Durchschnitt _ 6,9 C 7,8 C 96 % 999 hPa #8,3 l/m #0 min.